Regional Weather Roundup
Issued by NWS

Home | Current Version | Previous Version | Graphics & Text | Print | Product List | Glossary On
Versions: 1 2 3 4 5 6 7 8 9 10 11 12 13 14 15 16 17 18 19 20 21 22 23 24 25 26 27 28 29 30 31 32 33 34 35 36 37 38 39 40 41 42 43 44 45 46 47 48 49 50
000
ASUS43 KLOT 232108
RWRIL

ILLINOIS REGIONAL WEATHER ROUNDUP
NATIONAL WEATHER SERVICE CHICAGO/ROMEOVILLE IL
300 PM CST THU NOV 23 2017

NOTE: "FAIR" INDICATES FEW OR NO CLOUDS BELOW 12,000 FEET WITH NO
SIGNIFICANT WEATHER AND/OR OBSTRUCTIONS TO VISIBILITY.

* THESE STATIONS ARE NOT UNDER NWS QUALITY CONTROL. THEY ALSO MAY NOT
  REPORT WEATHER SUCH AS PRECIPITATION OR FOG.

ILZ001-002-007-009-015-016-024-232200-
NORTHWEST ILLINOIS

CITY           SKY/WX    TMP DP  RH WIND       PRES   REMARKS
MOLINE         SUNNY     50  25  37 VRB3      29.91F
STERLING*      SUNNY     46  26  45 W7        29.92F
SAVANNA*       SUNNY     47  26  43 SW3       29.91S
$$

ILZ003-004-008-010-011-017-018-232200-
NORTH CENTRAL ILLINOIS

CITY           SKY/WX    TMP DP  RH WIND       PRES   REMARKS
ROCKFORD       SUNNY     47  24  40 W7        29.93S
FREEPORT*      SUNNY     44  25  47 SW7       29.92S
ROCHELLE*      SUNNY     44  28  53 SW9       29.92S
DE KALB*       SUNNY     45  27  50 SW7       29.91F
PERU*          SUNNY     46  25  42 SW5       29.92F
$$

ILZ005-006-012>014-019>023-232200-
NORTHEAST ILLINOIS

CITY           SKY/WX    TMP DP  RH WIND       PRES   REMARKS
CHICAGO-OHARE  MOSUNNY   45  24  43 SW12      29.91S
CHICAGO-MIDWAY MOSUNNY   47  26  44 SW10      29.92S
AURORA         SUNNY     45  26  47 SW7       29.92S
LANSING*       SUNNY     47  30  52 SW10      29.93S
JOLIET*        SUNNY     48  27  44 SW8       29.93S
WAUKEGAN       SUNNY     45  25  45 VRB6      29.89S
DUPAGE AIRPORT SUNNY     44  26  49 SW8       29.91S
KANKAKEE*      SUNNY     47  27  45 SW10      29.95S
WHEELING       SUNNY     46  25  43 W9        29.92S
MORRIS*        SUNNY     47  26  45 SW8       29.92S
ROMEOVILLE*    SUNNY     46  27  48 SW8       29.92S
NORTHERLY ISL    N/A     47  21  36 S7          N/A
$$

LMZ740>746-232200-
SOUTHERN LAKE MICHIGAN

STATION/POSITION SKY/WX   TEMP    WIND        PRES    VSBY  WAVE
                          AIR SEA DIR/SP/G                  HT/PER
                          (F)     (DEG/KT/KT) (MB)    (MI)  (FT/S)
SOUTHERN BUOY              41 47  250/ 12/ 16 1013.5F         3/ 5
HARRISON CRIB              46     230/ 12/ 13   N/A
BURNHAM HARBOR             47     260/  5/ 13   N/A
CALUMET HARBOR             47     230/  8/ 12 1012.4S
BURNS HARBOR               46     210/ 10/ 15 1013.9S
MICHIGAN CITY              44     190/ 13/ 15   N/A
$$

ILZ025>027-034>036-040-047-049-050-058-095>099-232200-
WEST-CENTRAL ILLINOIS

CITY           SKY/WX    TMP DP  RH WIND       PRES   REMARKS
QUINCY         SUNNY     52  29  41 W5        29.93F
GALESBURG*     SUNNY     49  29  47 SW6       29.94S
MACOMB*        SUNNY     49  29  45 W8        29.96S
JACKSONVILLE*  SUNNY     52  28  40 SW6       29.94F
PITTSFIELD*    SUNNY     53  30  41 W7        29.94F
$$

ILZ028>032-037-038-041>044-048-051>054-059>061-232200-
CENTRAL ILLINOIS

CITY           SKY/WX    TMP DP  RH WIND       PRES   REMARKS
PONTIAC        SUNNY     48  28  44 SW10      29.93F
BLOOMINGTON    SUNNY     48  27  44 SW13      29.93F
DECATUR        SUNNY     51  28  41 SW12      29.96R
PEORIA         SUNNY     49  26  41 VRB6      29.93F
LACON*         SUNNY     48  25  41 CALM      29.93S
LINCOLN*       SUNNY     51  30  44 SW6       29.94S
SPRINGFIELD    SUNNY     53  28  38 W9        29.95F
TAYLORVILLE    SUNNY     51  28  41 SW10      29.96S
$$

ILZ033-039-045-046-055>057-062-063-232200-
EAST-CENTRAL ILLINOIS

CITY           SKY/WX    TMP DP  RH WIND       PRES   REMARKS
CHAMPAIGN      SUNNY     49  27  42 S16       29.96R
DANVILLE*      SUNNY     45  28  50 S10       29.94S
RANTOUL*       SUNNY     50  30  46 S10       29.95S
MATTOON        SUNNY     47  28  47 S10       29.96F
PARIS*         SUNNY     46  29  51 S14       29.98F
$$

ILZ079-100>102-232200-
SOUTHWEST ILLINOIS

CITY           SKY/WX    TMP DP  RH WIND       PRES   REMARKS
ALTON          SUNNY     55  30  38 SW8       29.96S
BELLEVILLE     SUNNY     57  26  31 S9        29.95S
CAHOKIA*       SUNNY     59  23  25 SW5       29.95S
SPARTA*        SUNNY     53  27  35 S8        29.98F
$$

ILZ064>066-069>071-074>076-080>082-084>086-088>090-092>094-232200-
SOUTH-CENTRAL ILLINOIS

CITY           SKY/WX    TMP DP  RH WIND       PRES   REMARKS
CARBONDALE     SUNNY     52  24  33 S10       30.00F
CAIRO*         SUNNY     50  25  37 S9        30.03F
EFFINGHAM*     SUNNY     52  27  38 SE8       29.98F
MARION         SUNNY     54  25  32 S12       30.01F
MT. VERNON     SUNNY     52  25  35 SW14      29.99F
CENTRALIA*     SUNNY     53  30  41 S10       29.97F
SALEM*         SUNNY     53  25  33 S8        29.97F
METROPOLIS*    SUNNY     52  22  31 S8        30.03F
$$

ILZ067-068-072-073-078-083-087-091-232200-
SOUTHEAST ILLINOIS

CITY           SKY/WX    TMP DP  RH WIND       PRES   REMARKS
LAWRENCEVILLE  SUNNY     48  26  42 S12       30.01F
FLORA*         SUNNY     52  26  37 S9        29.99S
FAIRFIELD*     SUNNY     51  24  35 S3        29.99F
HARRISBURG*    SUNNY     52  24  33 SW9       30.02S
ROBINSON*      SUNNY     47  25  42 S10       30.01S
CARMI*         SUNNY     50  26  39 S9        30.01F
$$

ABBREVIATIONS USED IN REMARKS
   TC - TEMPERATURE IN CELSIUS
  WCI - WIND CHILL INDEX
   HX - HEAT INDEX
  VSB - VISIBILITY
$$





USA.gov is the U.S. government's official web portal to all federal, state and local government web resources and services.